Preview of NWS' New Version of Forecast
This preview is not operational and should not be used for support decisions.

Regional Weather Roundup (RWR)

Issued by Gray - Portland, ME (GYX)

                            
000
ASUS41 KGYX 180505
RWRGYX
WEATHER ROUNDUP FOR MAINE AND NEW HAMPSHIRE
NATIONAL WEATHER SERVICE GRAY ME
100 AM EDT MON JUN 18 2018

MEZ002-005-006-010-012-015-018-020-021-024-026-027-029-180600-
MAINE
  
CITY           SKY/WX    TMP DP  RH WIND       PRES   REMARKS
PORTLAND       CLOUDY    55  55 100 VRB5      30.03F FOG              
SANFORD        FAIR      50  49  96 CALM      30.03S                  
WISCASSET      CLOUDY    54  53  97 CALM      30.05S                  
ROCKLAND       CLOUDY    52  52 100 NE3       30.04F FOG              
FRYEBURG       FAIR      54  54 100 CALM      30.02F                  
LEWISTONAUBURN FAIR      53  52  96 S6        30.02F                  
AUGUSTA        FAIR      53  51  93 S6        30.03F                  
WATERVILLE     FAIR      53  51  93 CALM      30.00F                  
BANGOR         MOCLDY    54  51  90 S8        30.03F                  
GREENVILLE       N/A     55  50  83 S6        29.97F                  
MILLINOCKET    MOCLDY    57  49  74 VRB5      30.00F                  
HOULTON        LGT RAIN  55  43  63 VRB7      29.97F                  
PRESQUE ISLE   MOCLDY    55  47  74 SE5       29.94F                  
FRENCHVILLE    LGT RAIN  58  51  78 S12       29.89F                  
CARIBOU        CLOUDY    56  46  69 S9        29.92F                  
$$

NHZ002-005-008-009-011-012-014-180600-
NEW HAMPSHIRE
  
CITY           SKY/WX    TMP DP  RH WIND       PRES   REMARKS
ROCHESTER      FAIR      55  55 100 CALM      30.02S                  
NASHUA         FAIR      62  57  83 CALM      30.03S                  
MANCHESTER     MOCLDY    68  55  63 CALM      30.01R                  
CONCORD        FAIR      60  55  83 CALM      30.02S                  
LACONIA        FAIR      62  56  80 CALM      30.02F                  
PLYMOUTH         N/A     59  55  89 CALM      30.02S                  
BERLIN         FAIR      60  56  86 CALM      30.00S                  
WHITEFIELD     FAIR      59  54  83 CALM      30.00F HAZE             
JAFFREY        FAIR      69  57  65 SW6       30.06R                  
KEENE          FAIR      61  56  83 CALM      30.04R                  
LEBANON        FAIR      61  54  77 S3        30.01S                  
MT WASHINGTON  MOCLDY    54  39  58 W41         N/A                   
$$

VTZ005-007-008-180600-
VERMONT
  
CITY           SKY/WX    TMP DP  RH WIND       PRES   REMARKS
ST JOHNSBURY     N/A     64  56  75 MISG      29.97R                  
MONTPELIER     FAIR      68  51  54 S6        30.03S                  
BURLINGTON     FAIR      77  48  35 S13       29.93F                  
$$

MAZ007-012-024-CTZ003-RIZ002-NYZ038-NYZ072-180600-
SOUTHERN NEW ENGLAND AND NY
  
CITY           SKY/WX    TMP DP  RH WIND       PRES   REMARKS
BOSTON         FAIR      69  54  58 SW12      30.03S                  
WORCESTER      FAIR      67  52  58 SW10      30.06S                  
NANTUCKET      FAIR      60  60 100 SW6       30.08F                  
PROVIDENCE     FAIR      63  60  90 SW3       30.07S                  
HARTFORD       FAIR      69  56  62 S9        30.04S                  
ALBANY         FAIR      75  57  53 S10       30.01R                  
NEW YORK CITY  FAIR      77  59  53 SW10      30.06R                  
$$

ANZ081-ANZ082-ANZ150-NHZ014-MEZ023>029-180600-
COASTAL MARINE OBSERVATIONS
  
STATION/POSITION TIME  TEMP    WIND        PRES    WAVE
                       AIR SEA DIR/SP/G            HT/PER
                 (UTC) (F)     (DEG/KT/KT) (MB)    (FT/S)
MOUNT DESERT ROC 0500   52     270/  4/  4 1017.8R
MATINICUS ROCK   0400   53     150/  5/  5 1016.9F
ISLE OF SHOALS   0400   62     250/  4/  4 1015.9F
JEFFREYS LEDGE   0436      58                N/A     2/ 3
$$

.............KEY..............
   WCI - WIND CHILL
   TC  - TEMPERATURE IN CELSIUS
   VSB - VISIBILITY IN MILES
   HX  - HEAT INDEX
   FAIR- INDICATES FEW OR NO CLOUDS BELOW 12,000 FT, WITH NO 
         SIGNIFICANT WEATHER AND/OR OBSTRUCTIONS TO VISIBILITY.